This is the latest recevied weather packets stored in our database for station/object KC3ELT-10. If no packets are shown the sender has not sent any weather packets the latest 10 day(s).
| Time | Temp. | Humidity | Pressure | Rain* | Wind** | Luminosity | Snow |
|---|---|---|---|---|---|---|---|
| 1777930979 | 20° C | 39% | 1003.4 hPa | 0 mm | 1.34 m/s, 281° | - | - |
| 1777930679 | 20.56° C | 38% | 1003.4 hPa | 0 mm | 0 m/s | - | - |
| 1777930379 | 20.56° C | 39% | 1003.4 hPa | 0 mm | 0.89 m/s, 184° | - | - |
| 1777930079 | 20° C | 37% | 1003.4 hPa | 0 mm | 2.24 m/s, 273° | - | - |
| 1777929779 | 20.56° C | 38% | 1003.4 hPa | 0 mm | 2.68 m/s, 241° | - | - |
| 1777929479 | 20.56° C | 38% | 1003.4 hPa | 0 mm | 2.24 m/s, 245° | - | - |
| 1777929179 | 20° C | 39% | 1003.6 hPa | 0 mm | 0.89 m/s, 220° | - | - |
| 1777928879 | 20.56° C | 38% | 1003.6 hPa | 0 mm | 1.34 m/s, 225° | - | - |
| 1777928579 | 20.56° C | 38% | 1003.6 hPa | 0 mm | 0.89 m/s, 187° | - | - |
| 1777928279 | 20.56° C | 39% | 1003.8 hPa | 0 mm | 4.47 m/s, 219° | - | - |
| 1777927979 | 20° C | 40% | 1003.8 hPa | 0 mm | 0.89 m/s, 234° | - | - |
| 1777927679 | 19.44° C | 39% | 1003.8 hPa | 0 mm | 1.79 m/s, 238° | - | - |
| 1777927379 | 20° C | 39% | 1003.8 hPa | 0 mm | 0.45 m/s, 193° | - | - |
| 1777927079 | 20° C | 38% | 1003.8 hPa | 0 mm | 0.89 m/s, 176° | - | - |
| 1777926779 | 20.56° C | 37% | 1003.8 hPa | 0 mm | 2.68 m/s, 228° | - | - |
| 1777926479 | 20.56° C | 39% | 1004 hPa | 0 mm | 2.68 m/s, 247° | - | - |
| 1777926179 | 20.56° C | 39% | 1004 hPa | 0 mm | 1.34 m/s, 264° | - | - |
| 1777925879 | 20.56° C | 39% | 1004 hPa | 0 mm | 0.45 m/s, 240° | - | - |
| 1777925579 | 20.56° C | 39% | 1003.8 hPa | 0 mm | 1.34 m/s, 141° | - | - |
| 1777925279 | 20° C | 38% | 1003.8 hPa | 0 mm | 1.79 m/s, 230° | - | - |
| 1777924979 | 19.44° C | 39% | 1003.8 hPa | 0 mm | 3.13 m/s, 307° | - | - |
| 1777924679 | 20° C | 38% | 1003.9 hPa | 0 mm | 2.24 m/s, 249° | - | - |
| 1777924379 | 20.56° C | 38% | 1003.9 hPa | 0 mm | 1.79 m/s, 202° | - | - |
| 1777924079 | 20.56° C | 40% | 1003.9 hPa | 0 mm | 2.24 m/s, 260° | - | - |
| 1777923779 | 20° C | 39% | 1004 hPa | 0 mm | 1.79 m/s, 259° | - | - |
* Rain latest hour (hover to see other rain measurements)
** Current wind speed in m/s (hover to see current wind gust speed)